EN

Hourly Weather Kaplivka

Today, 2 March, Tuesday

Time Temperature Precipitation Wind Pressure Humidity
00:00 +2°C° 0 mm 2 mps 756 mmHg 83%
01:00 +2°C° 0 mm 2 mps 756 mmHg 84%
02:00 +2°C° 0 mm 2 mps 756 mmHg 85%
03:00 +1°C° 0 mm 2 mps 755 mmHg 87%
04:00 0°C° 0 mm 3 mps 755 mmHg 89%
05:00 -1°C° 0 mm 3 mps 754 mmHg 90%
06:00 -1°C° 0 mm 3 mps 754 mmHg 88%
07:00 0°C° 0 mm 3 mps 754 mmHg 86%
08:00 -1°C° 0 mm 4 mps 754 mmHg 84%
09:00 0°C° 0 mm 5 mps 753 mmHg 78%
10:00 +2°C° 0 mm 5 mps 753 mmHg 72%
11:00 +3°C° 0 mm 6 mps 753 mmHg 65%
12:00 +4°C° 0 mm 6 mps 752 mmHg 64%
13:00 +6°C° 0 mm 7 mps 752 mmHg 62%
14:00 +8°C° 0 mm 7 mps 751 mmHg 63%
15:00 +8°C° 0 mm 7 mps 751 mmHg 63%
16:00 +8°C° 0 mm 7 mps 751 mmHg 64%
17:00 +6°C° 0 mm 7 mps 751 mmHg 64%
18:00 +6°C° 0 mm 7 mps 751 mmHg 69%
19:00 +5°C° 0 mm 7 mps 751 mmHg 73%
20:00 +4°C° 0 mm 6 mps 752 mmHg 78%
21:00 +3°C° 0 mm 6 mps 752 mmHg 79%
22:00 +3°C° 0 mm 6 mps 752 mmHg 80%
23:00 +2°C° 0 mm 5 mps 753 mmHg 82%

Tomorrow, 3 March, Wednesday

Time Temperature Precipitation Wind Pressure Humidity
00:00 +2°C° 0 mm 5 mps 753 mmHg 84%
01:00 +1°C° 0 mm 4 mps 753 mmHg 86%
02:00 +1°C° 0 mm 4 mps 753 mmHg 89%
03:00 +1°C° 0 mm 3 mps 753 mmHg 90%
04:00 +1°C° 0 mm 3 mps 753 mmHg 91%
05:00 0°C° 0 mm 3 mps 753 mmHg 92%
06:00 0°C° 0 mm 3 mps 753 mmHg 92%
07:00 +1°C° 0 mm 2 mps 753 mmHg 92%
08:00 +1°C° 0 mm 2 mps 753 mmHg 92%
09:00 +2°C° 0 mm 3 mps 753 mmHg 86%
10:00 +3°C° 0 mm 3 mps 753 mmHg 80%
11:00 +5°C° 0 mm 3 mps 753 mmHg 74%
12:00 +7°C° 0 mm 3 mps 753 mmHg 69%
13:00 +8°C° 0 mm 3 mps 752 mmHg 65%
14:00 +9°C° 0 mm 3 mps 752 mmHg 60%
15:00 +8°C° 0 mm 2 mps 752 mmHg 61%
16:00 +8°C° 0 mm 2 mps 751 mmHg 62%
17:00 +9°C° 0 mm 1 mps 750 mmHg 63%
18:00 +8°C° 0 mm 1 mps 750 mmHg 67%
19:00 +7°C° 0 mm 1 mps 750 mmHg 71%
20:00 +6°C° 0 mm 1 mps 750 mmHg 74%
21:00 +6°C° 0 mm 1 mps 750 mmHg 76%
22:00 +5°C° 0 mm 1 mps 749 mmHg 77%
23:00 +5°C° 0 mm 1 mps 749 mmHg 78%

Day after tomorrow, 4 March, Thursday

Time Temperature Precipitation Wind Pressure Humidity
00:00 +5°C° 0 mm 1 mps 749 mmHg 79%
01:00 +4°C° 0 mm 1 mps 748 mmHg 79%
02:00 +4°C° 0 mm 1 mps 748 mmHg 80%
03:00 +4°C° 0 mm 1 mps 747 mmHg 80%
04:00 +3°C° 0 mm 1 mps 746 mmHg 80%
05:00 +3°C° 0 mm 1 mps 746 mmHg 81%
06:00 +3°C° 0 mm 1 mps 745 mmHg 78%
07:00 +4°C° 0 mm 1 mps 745 mmHg 75%
08:00 +4°C° 0 mm 1 mps 745 mmHg 72%
09:00 +6°C° 0 mm 1 mps 744 mmHg 66%
10:00 +8°C° 0 mm 1 mps 743 mmHg 59%
11:00 +8°C° 0 mm 2 mps 743 mmHg 52%
12:00 +10°C° 0 mm 2 mps 742 mmHg 50%
13:00 +11°C° 0 mm 3 mps 742 mmHg 47%
14:00 +12°C° 0 mm 3 mps 741 mmHg 44%
15:00 +13°C° 0 mm 2 mps 741 mmHg 47%
16:00 +13°C° 0 mm 2 mps 740 mmHg 49%
17:00 +13°C° 0 mm 1 mps 740 mmHg 52%
18:00 +10°C° 0 mm 2 mps 740 mmHg 56%
19:00 +9°C° 0 mm 2 mps 740 mmHg 59%
20:00 +8°C° 0 mm 2 mps 740 mmHg 63%
21:00 +7°C° 0 mm 2 mps 740 mmHg 64%
22:00 +7°C° 0 mm 2 mps 740 mmHg 66%
23:00 +8°C° 0 mm 1 mps 739 mmHg 68%

5 March, Friday

Time Temperature Precipitation Wind Pressure Humidity
00:00 +7°C° 0 mm 1 mps 739 mmHg 69%
01:00 +7°C° 0 mm 1 mps 739 mmHg 69%
02:00 +7°C° 0 mm 1 mps 739 mmHg 70%
03:00 +7°C° 0 mm 1 mps 738 mmHg 70%
04:00 +6°C° 0 mm 2 mps 738 mmHg 70%
05:00 +5°C° 0 mm 3 mps 737 mmHg 69%
06:00 +5°C° 0 mm 3 mps 738 mmHg 70%
07:00 +5°C° 0 mm 3 mps 738 mmHg 71%
08:00 +5°C° 0 mm 3 mps 738 mmHg 71%
09:00 +4°C° 0 mm 4 mps 738 mmHg 76%
10:00 +3°C° 0 mm 5 mps 738 mmHg 80%
11:00 +3°C° 0 mm 5 mps 738 mmHg 85%
12:00 +2°C° 0 mm 5 mps 739 mmHg 85%
13:00 +1°C° 0 mm 5 mps 739 mmHg 86%
14:00 +1°C° 0 mm 5 mps 740 mmHg 86%
15:00 +1°C° 0 mm 5 mps 740 mmHg 81%
16:00 +1°C° 0 mm 5 mps 741 mmHg 76%
17:00 +1°C° 0 mm 5 mps 741 mmHg 71%
18:00 0°C° 0 mm 5 mps 742 mmHg 73%
19:00 0°C° 0 mm 4 mps 743 mmHg 74%
20:00 -1°C° 0 mm 4 mps 743 mmHg 76%
21:00 -1°C° 0 mm 4 mps 744 mmHg 75%
22:00 -1°C° 0 mm 4 mps 745 mmHg 74%
23:00 -1°C° 0 mm 3 mps 745 mmHg 73%

6 March, Saturday

Time Temperature Precipitation Wind Pressure Humidity
00:00 -1°C° 0 mm 3 mps 746 mmHg 72%
01:00 -1°C° 0 mm 3 mps 746 mmHg 71%
02:00 -2°C° 0 mm 3 mps 746 mmHg 71%
03:00 -2°C° 0 mm 3 mps 747 mmHg 70%
04:00 -2°C° 0 mm 3 mps 747 mmHg 70%
05:00 -2°C° 0 mm 3 mps 747 mmHg 70%
06:00 -2°C° 0 mm 3 mps 748 mmHg 68%
07:00 -2°C° 0 mm 3 mps 748 mmHg 66%
08:00 -3°C° 0 mm 4 mps 749 mmHg 64%
09:00 -2°C° 0 mm 4 mps 749 mmHg 57%
10:00 -1°C° 0 mm 4 mps 749 mmHg 49%
11:00 0°C° 0 mm 4 mps 749 mmHg 41%
12:00 0°C° 0 mm 5 mps 749 mmHg 40%
13:00 +1°C° 0 mm 5 mps 749 mmHg 40%
14:00 +1°C° 0 mm 5 mps 749 mmHg 39%
15:00 +1°C° 0 mm 5 mps 750 mmHg 42%
16:00 0°C° 0 mm 5 mps 750 mmHg 45%
17:00 0°C° 0 mm 5 mps 750 mmHg 48%
18:00 -1°C° 0 mm 4 mps 750 mmHg 52%
19:00 -2°C° 0 mm 4 mps 751 mmHg 56%
20:00 -2°C° 0 mm 3 mps 751 mmHg 59%
21:00 -2°C° 0 mm 3 mps 751 mmHg 59%
22:00 -2°C° 0 mm 2 mps 752 mmHg 58%
23:00 -2°C° 0 mm 2 mps 752 mmHg 58%

7 March, Sunday

Time Temperature Precipitation Wind Pressure Humidity
00:00 -2°C° 0 mm 2 mps 752 mmHg 59%
01:00 -4°C° 0 mm 3 mps 751 mmHg 60%
02:00 -4°C° 0 mm 3 mps 751 mmHg 61%
03:00 -4°C° 0 mm 3 mps 751 mmHg 60%
04:00 -4°C° 0 mm 3 mps 750 mmHg 59%
05:00 -4°C° 0 mm 3 mps 750 mmHg 58%
06:00 -4°C° 0 mm 3 mps 750 mmHg 56%
07:00 -4°C° 0 mm 3 mps 749 mmHg 53%
08:00 -3°C° 0 mm 4 mps 749 mmHg 51%
09:00 -2°C° 0 mm 4 mps 748 mmHg 46%
10:00 -1°C° 0 mm 4 mps 748 mmHg 41%
11:00 +1°C° 0 mm 4 mps 747 mmHg 36%
12:00 +3°C° 0 mm 4 mps 747 mmHg 35%
13:00 +3°C° 0 mm 4 mps 746 mmHg 34%
14:00 +4°C° 0 mm 4 mps 745 mmHg 33%
15:00 +4°C° 0 mm 4 mps 745 mmHg 37%
16:00 +4°C° 0 mm 3 mps 744 mmHg 41%
17:00 +4°C° 0 mm 3 mps 743 mmHg 45%
18:00 +3°C° 0 mm 3 mps 743 mmHg 50%
19:00 +2°C° 0 mm 3 mps 743 mmHg 55%
20:00 0°C° 0 mm 3 mps 743 mmHg 60%
21:00 0°C° 0 mm 3 mps 743 mmHg 61%
22:00 -1°C° 0 mm 2 mps 743 mmHg 62%
23:00 -1°C° 0 mm 2 mps 743 mmHg 63%
Show more

We Need Your Consent

Meteoprog and our Service Providers may store and access personal data such as cookies, device identifiers or other similar technologies on your device and process such data to personalise content and ads, as well as provide social media features and to analyse the traffic.

  • Store and/or access information on your device

    Cookies, device identifiers or other information can be stored or accessed on your device for the purposes indicated above.

  • Personalised ads and content, ad and content measurement, audience insights, and products development

    Ads and content can be personalised based on a profile. More data can be added to better personalise ads and content. Ad and content performance can be measured. Insights about the audience who saw the ads and content can be derived. Such data can be used to develop or improve user’s experience, systems and software.

By clicking ‘I Agree’ you will allow the use of indicated cookies, device identifiers, web beacons or other similar technologies. Your settings can be changed in the browser on your device.

For certain purposes, legitimate interests may be relied on, rather than consent. You can read more about this in our Privacy and Cookie Policy.